Tracking 25954 objects as of 14-Aug-2022
HD Live streaming from Space Station
objects crossing your sky now

SL-12 DEB

Track SL-12 DEB now!
10-day predictions


NORAD ID: 25684
Int'l Code: 1985-118X
Perigee: 585.8 km
Apogee: 15,391.0 km
Inclination: 64.9 °
Period: 285.4 minutes
Semi major axis: 14359 km
RCS: 0.0262 m2 (small)
Launch date: December 24, 1985
Source: Commonwealth of Independent States (former USSR) (CIS)
Launch site: TYURATAM MISSILE AND SPACE COMPLEX (TTMTR)

Note: This is SATELLITE DEBRIS
aabbcc
Your satellite tracking list
Your tracking list is empty




NASA's NSSDC Master Catalog

Two Line Element Set (TLE):
1 25684U 85118X   22225.31939412  .00000963  00000-0  30204-2 0  9992
2 25684  64.9249 221.1099 5155224 111.3299 309.8755  5.04544290430147
Source of the keplerian elements: AFSPC